Погода в Красном Гуляе

Россия / Ульяновская область     54°01′28″N   48°19′49″E
темп.,
°C
ветер,
м/с
пор.,
м/с
влажн.,
%
обл.,
%
осадки,
мм/ч
давл.,
гПа
погр.,
м
7 мая, пт
пт701:00+11ю41073100 0.0 1016178
04:00+10ю4971100 0.0 1016166
07:00+11ю41166100 0.0 1015286
10:00+15ю61052100 0.0 10151050
13:00+17ю81141100 0.0 10141984
16:00+18ю71042100 0.0 10132386
19:00+16ю51151100 0.0 1013526
22:00+11зюз3883100 0.3 1015479
8 мая, сб
сб801:00+10з1193100 0.6 101616
04:00+10с1298100 5.9 1016149
07:00+9всв3697100 1.6 1016297
10:00+11юв3790100 1.9 1017493
13:00+16ю356355 0.3 10151376
16:00+18ю365495 0.4 10141621
19:00+15вюв36701 0.0 1013182
22:00+12юв3972100 0.0 1013179
9 мая, вс
вс901:00+11ююв3778100 0.0 1013122
04:00+10ю358386 0.0 101286
07:00+11ю4977100 0.0 1013245
10:00+17ю575286 0.0 1012713
13:00+20ю5645100 0.0 10121393
16:00+20ю464898 0.0 10121646
19:00+16зсз5775100 0.3 1013216
22:00+12ссв2595100 2.8 1015147
10 мая, пн
пн1001:00+12с2398100 4.1 1016107
04:00+11с3698100 5.9 1018341
07:00+11с4795100 0.0 1020288
10:00+11с5791100 0.1 1022461
13:00+13ссв688596 0.2 1023578
16:00+15ссв787891 0.3 1023802
19:00+13ссв61082100 0.0 1024627
22:00+10ссв612875 0.0 1025487
11 мая, вт
вт1101:00+9ссв713885 0.0 1026507
04:00+7св613865 0.0 1026449
07:00+8св7138413 0.0 1027480
10:00+11св7106418 0.0 1028651
13:00+15св78505 0.0 1027866
16:00+16св68442 0.0 1027903
19:00+13св510563 0.0 1027451
22:00+10св411643 0.0 1028243